Terminal Aerodrome Forecast
Issued by NWS Grand Forks, ND

Home | Current Version | Previous Version | Graphics & Text | Print | Product List | Glossary On
Versions: 1 2 3 4 5 6 7 8 9 10 11 12 13 14 15 16 17 18 19 20 21
000
FTUS43 KFGF 210520
TAFGFK
TAF
KGFK 210520Z 2106/2206 04010KT 5SM -RA BR SCT015 OVC025
     FM210800 01010KT 6SM -RA BKN015 OVC020
     FM211300 36010KT 6SM -RA OVC015
     FM211700 34013G21KT 6SM -RA OVC020
     FM212300 33012KT P6SM BKN025 OVC040=

USA.gov is the U.S. government's official web portal to all federal, state and local government web resources and services.